Temp
17 17 17 17 17 17 17 16 16 15 15 16 15 15 15 16 16 16 16 16 16 16 16 15 15 15 15 15 15 15 15 15 15 15 15 15 15 15 15 15 15 15
17 17 17 17 17 16 16 16 15 15 15 15 15 15 16 16 16 16 16 16 16 16 16 16 16 15 15 15 15 14 15 15 15 15 15 15 15 15 15 15 15 15
17 17 16 16 16 16 16 16 16 16 15 15 15 15 15 15 15 15 16 16 16 16 16 15 15 15 15 15 15 15 15 15 15 15 15 15 15 15 15 15 14 14
17 17 17 16 16 16 16 16 16 15 15 15 15 15 15 15 15 15 16 16 16 15 15 15 15 15 15 15 15 15 15 15 15 14 15 15 15 14 15 14 14 14
17 17 17 17 16 16 17 16 16 15 15 15 15 15 15 15 15 15 15 16 15 15 15 14 14 14 15 15 15 15 15 15 15 15 14 15 15 14 14 14 14 14
17 17 17 17 17 17 17 16 15 16 16 16 16 16 16 16 16 16 16 16 16 15 15 14 14 14 14 14 14 15 15 15 15 15 15 15 15 14 14 14 14 14
17 17 17 17 17 17 16 16 16 16 16 16 16 16 16 16 16 15 15 15 15 15 15 15 15 14 14 14 14 14 14 15 15 15 15 15 15 14 14 14 14 14
17 17 17 17 17 16 16 16 16 17 17 16 16 16 16 16 15 15 15 15 15 15 14 15 15 14 14 14 14 14 14 14 14 14 14 15 14 14 14 14 14 14
17 17 16 16 16 16 16 16 16 17 17 17 16 16 16 16 16 15 15 15 15 15 15 15 15 15 15 14 14 14 14 14 14 14 14 14 14 14 14 14 14 14
17 17 16 16 16 16 16 16 16 17 17 17 16 16 16 16 16 16 16 15 15 15 15 15 14 15 15 15 15 15 15 15 15 14 14 14 14 13 14 14 14 14
17 17 16 16 16 16 16 17 17 17 17 17 17 16 16 16 16 16 16 16 15 15 15 15 15 15 14 14 15 15 15 15 15 14 14 14 13 13 13 13 13 13
17 17 17 17 17 17 17 17 17 17 17 17 17 16 16 16 16 16 16 16 16 15 15 15 15 15 14 14 14 15 15 15 15 14 14 14 13 13 13 13 12 12
17 17 17 17 17 17 17 17 17 17 17 17 17 17 17 16 16 16 15 15 15 15 15 15 15 14 14 14 14 14 14 15 14 14 14 14 13 13 13 13 12 12
18 17 17 17 17 17 17 17 16 16 17 17 17 17 16 16 15 15 15 15 15 15 15 15 15 14 14 14 14 14 14 14 14 14 14 14 13 13 13 13 12 12
18 18 18 17 17 17 17 17 16 16 16 16 16 16 16 15 15 15 15 15 15 15 15 15 14 14 14 14 14 14 14 14 14 14 14 14 13 13 13 13 12 12
18 18 17 17 17 17 17 17 16 16 16 15 15 15 15 15 15 15 15 15 15 15 15 14 14 14 14 14 14 14 14 14 14 14 14 14 14 13 13 12 12 12
18 18 17 17 17 17 17 17 17 16 15 15 15 15 15 15 15 15 15 15 15 15 14 14 14 15 15 14 14 14 14 14 14 14 13 13 13 13 13 12 12 12
18 17 17 17 17 17 17 17 17 16 16 15 15 15 15 15 15 15 15 15 15 15 15 15 15 15 15 15 15 14 14 14 13 13 13 13 13 13 13 12 12 12
18 17 17 17 17 17 17 17 16 16 16 15 15 15 15 15 15 15 15 15 15 15 15 15 15 15 15 15 14 14 14 13 13 13 13 13 13 13 12 12 12 12
18 18 17 17 17 17 17 17 16 16 16 16 15 15 15 15 15 15 15 15 15 15 15 15 15 15 15 14 14 14 14 13 13 13 13 13 13 13 12 12 12 12
18 18 17 17 17 17 17 17 16 16 16 16 16 15 15 16 15 15 15 15 15 15 15 15 15 14 14 14 14 14 13 13 13 13 13 13 13 13 13 12 12 12
18 18 18 17 17 17 17 16 16 16 16 16 16 16 15 15 15 15 15 15 15 15 15 14 14 14 14 14 14 13 13 13 13 13 13 13 13 13 13 12 12 12
18 18 18 18 17 17 17 16 16 16 16 16 16 16 15 15 15 15 15 15 15 15 14 14 14 14 14 14 13 13 13 13 13 13 13 13 13 13 13 12 12 12
18 18 18 18 18 17 17 16 16 16 16 16 16 16 15 15 15 15 15 15 15 15 14 14 14 14 14 13 13 13 13 13 13 13 13 13 13 13 13 13 12 12
19 19 18 18 18 17 17 16 16 16 16 16 16 16 16 15 15 15 15 15 15 15 14 14 14 14 14 13 13 13 13 13 13 13 13 13 13 13 13 13 12 12
19 19 18 18 18 17 17 16 16 16 16 16 16 16 15 15 15 15 15 15 15 15 14 14 14 14 14 13 13 13 13 13 13 13 13 13 13 13 13 13 12 12
Height
1547 1547 1547 1547 1546 1546 1546 1546 1545 1545 1545 1545 1545 1545 1545 1545 1544 1544 1544 1543 1543 1543 1542 1542 1541 1540 1540 1539 1538 1537 1536 1536 1536 1535 1534 1534 1534 1533 1532 1532 1531 1530
1546 1546 1546 1545 1545 1544 1544 1544 1544 1544 1544 1544 1544 1544 1544 1544 1543 1543 1543 1542 1542 1542 1541 1541 1540 1539 1538 1538 1537 1536 1535 1535 1534 1534 1533 1533 1533 1532 1531 1530 1529 1529
1545 1545 1544 1543 1543 1543 1543 1543 1543 1542 1543 1543 1543 1543 1543 1543 1542 1542 1542 1541 1541 1540 1540 1539 1538 1538 1537 1536 1536 1535 1534 1534 1533 1533 1533 1532 1531 1530 1530 1529 1528 1527
1543 1543 1543 1542 1542 1542 1541 1541 1541 1541 1541 1542 1542 1542 1542 1541 1541 1541 1540 1540 1540 1539 1538 1538 1537 1536 1536 1535 1534 1534 1533 1532 1532 1532 1531 1531 1530 1529 1528 1527 1526 1525
1542 1542 1541 1541 1540 1540 1540 1539 1540 1540 1540 1540 1540 1540 1540 1540 1540 1539 1539 1539 1538 1538 1537 1537 1536 1536 1535 1534 1533 1532 1532 1531 1531 1530 1530 1529 1528 1527 1526 1525 1524 1523
1540 1540 1540 1539 1538 1538 1538 1538 1538 1538 1538 1538 1538 1539 1539 1538 1538 1538 1537 1537 1536 1536 1536 1535 1535 1534 1534 1533 1532 1531 1530 1530 1529 1529 1528 1527 1527 1525 1524 1523 1522 1521
1538 1538 1538 1538 1537 1537 1536 1536 1537 1537 1537 1537 1536 1537 1536 1536 1536 1536 1535 1535 1535 1534 1534 1534 1533 1533 1532 1532 1531 1530 1529 1529 1528 1527 1527 1526 1525 1524 1522 1521 1520 1519
1537 1537 1537 1536 1536 1535 1535 1535 1535 1535 1535 1535 1535 1535 1535 1535 1535 1534 1534 1533 1533 1533 1532 1532 1531 1531 1530 1530 1529 1528 1528 1527 1527 1526 1525 1524 1523 1522 1521 1519 1518 1516
1536 1536 1536 1535 1534 1534 1534 1534 1534 1534 1534 1534 1534 1534 1534 1534 1533 1533 1532 1532 1531 1531 1530 1529 1529 1529 1528 1528 1527 1526 1525 1525 1524 1524 1523 1522 1521 1520 1518 1517 1515 1514
1534 1535 1535 1534 1534 1533 1533 1533 1533 1533 1533 1533 1533 1533 1533 1532 1532 1532 1531 1530 1530 1529 1529 1528 1528 1527 1526 1526 1525 1524 1523 1522 1522 1521 1521 1520 1519 1517 1516 1514 1513 1512
1532 1533 1533 1533 1533 1532 1532 1532 1532 1532 1532 1532 1532 1531 1531 1530 1530 1530 1530 1529 1528 1528 1527 1527 1526 1525 1524 1523 1523 1522 1521 1521 1520 1519 1518 1517 1516 1515 1514 1512 1511 1509
1529 1530 1532 1532 1532 1531 1531 1531 1531 1530 1531 1531 1530 1529 1528 1528 1528 1528 1528 1528 1527 1526 1525 1524 1524 1523 1522 1521 1521 1520 1519 1518 1517 1517 1516 1515 1514 1513 1512 1510 1509 1507
1527 1528 1530 1530 1530 1530 1529 1529 1529 1529 1528 1528 1527 1527 1526 1526 1526 1526 1526 1525 1525 1524 1523 1522 1521 1521 1519 1518 1518 1518 1517 1516 1515 1514 1513 1512 1511 1510 1509 1508 1506 1505
1525 1526 1527 1528 1529 1528 1528 1527 1526 1526 1526 1525 1525 1525 1524 1524 1523 1524 1523 1523 1522 1521 1520 1519 1519 1518 1517 1516 1516 1515 1514 1513 1512 1512 1511 1510 1509 1507 1507 1506 1504 1503
1523 1525 1526 1526 1526 1525 1525 1524 1524 1523 1523 1523 1523 1522 1522 1522 1522 1521 1521 1520 1519 1518 1518 1517 1516 1516 1515 1514 1513 1512 1511 1511 1510 1509 1508 1507 1506 1505 1504 1503 1502 1501
1521 1522 1523 1524 1524 1523 1522 1522 1521 1521 1520 1520 1520 1520 1520 1520 1519 1519 1518 1518 1518 1517 1516 1515 1514 1513 1512 1511 1511 1510 1509 1508 1507 1506 1506 1505 1503 1502 1501 1500 1500 1499
1518 1520 1521 1521 1521 1520 1520 1519 1519 1518 1518 1519 1518 1518 1518 1517 1517 1517 1516 1516 1516 1514 1514 1513 1511 1510 1510 1509 1509 1508 1507 1506 1505 1504 1504 1503 1501 1500 1499 1498 1498 1497
1516 1517 1518 1518 1518 1517 1517 1517 1516 1516 1517 1517 1517 1516 1516 1516 1515 1515 1514 1514 1513 1512 1512 1511 1509 1508 1508 1507 1506 1505 1505 1504 1503 1502 1501 1500 1499 1498 1497 1496 1495 1494
1514 1515 1515 1515 1515 1515 1515 1514 1514 1515 1515 1516 1516 1516 1515 1515 1514 1513 1512 1512 1511 1510 1509 1508 1507 1506 1505 1504 1503 1503 1502 1501 1500 1500 1499 1498 1497 1496 1495 1493 1492 1492
1511 1512 1512 1512 1512 1512 1512 1512 1513 1513 1513 1514 1514 1514 1514 1513 1512 1511 1510 1510 1509 1508 1507 1505 1505 1503 1502 1502 1501 1500 1499 1498 1497 1497 1496 1495 1494 1493 1492 1491 1490 1489
1508 1509 1509 1509 1509 1510 1510 1510 1511 1511 1512 1512 1512 1512 1512 1512 1511 1510 1508 1507 1506 1505 1504 1503 1502 1502 1500 1499 1498 1497 1497 1496 1495 1494 1493 1492 1492 1491 1490 1489 1488 1486
1505 1506 1507 1507 1507 1508 1508 1508 1509 1509 1510 1510 1510 1510 1510 1509 1509 1508 1507 1505 1504 1503 1502 1501 1500 1500 1499 1497 1496 1495 1494 1493 1492 1491 1490 1489 1489 1489 1488 1487 1485 1484
1502 1503 1504 1504 1505 1505 1506 1507 1507 1508 1508 1508 1508 1507 1507 1507 1507 1506 1505 1503 1502 1501 1500 1499 1499 1498 1497 1495 1494 1493 1491 1490 1489 1488 1487 1487 1486 1486 1485 1484 1483 1482
1499 1500 1501 1501 1502 1503 1503 1504 1505 1505 1506 1506 1506 1506 1506 1506 1505 1503 1503 1501 1499 1498 1497 1497 1496 1496 1495 1493 1492 1491 1489 1488 1487 1486 1485 1484 1484 1483 1483 1482 1480 1479
1497 1498 1498 1499 1500 1500 1501 1502 1503 1503 1503 1503 1504 1504 1504 1503 1502 1501 1500 1498 1497 1497 1496 1495 1495 1494 1493 1492 1490 1489 1487 1486 1485 1484 1483 1482 1482 1481 1480 1479 1478 1477
1495 1496 1497 1497 1498 1498 1499 1500 1500 1501 1501 1501 1501 1502 1501 1501 1500 1498 1497 1496 1496 1496 1494 1493 1493 1492 1491 1490 1488 1487 1485 1484 1483 1482 1481 1480 1479 1479 1478 1476 1476 1475
Wind_Speed
7 6 5 4 4 4 4 5 5 6 6 6 6 7 8 9 9 10 11 12 12 12 12 13 14 15 15 14 14 13 12 10 10 12 13 12 12 12 14 15 16 16
7 7 8 5 2 3 4 3 4 6 6 5 6 8 9 9 9 9 11 11 12 12 12 13 14 14 14 14 14 14 14 12 11 12 14 13 12 13 15 17 17 17
9 8 8 5 2 3 5 6 6 5 4 5 7 8 9 9 9 10 11 11 12 12 13 14 14 14 15 15 15 15 15 14 12 12 11 12 13 14 16 17 17 17
11 9 8 7 6 6 7 7 5 3 4 6 8 9 9 10 11 12 12 12 12 13 14 14 14 15 17 17 16 15 15 14 13 12 11 11 12 14 16 17 17 16
12 11 9 7 7 7 7 5 3 3 5 7 9 9 10 11 13 14 14 13 13 13 13 13 14 15 16 17 16 16 16 15 13 13 13 12 13 15 16 17 17 17
12 12 10 7 7 7 6 5 4 3 5 7 8 9 11 12 13 14 15 14 14 14 14 14 15 16 16 16 16 16 16 16 15 14 14 14 15 16 16 16 17 18
11 11 9 6 5 5 5 5 3 3 7 8 7 9 12 13 14 16 16 16 16 16 16 16 17 16 16 15 16 16 15 15 16 15 15 16 17 17 17 18 19 19
11 11 9 7 6 6 7 6 4 6 9 9 8 9 11 13 15 17 17 18 18 18 17 17 16 17 17 16 15 16 15 15 15 15 16 17 18 18 18 19 20 20
11 12 12 10 8 8 8 7 6 8 10 10 9 9 11 12 14 16 17 19 20 20 19 19 19 19 18 17 17 18 17 16 16 15 17 18 18 18 19 20 21 21
11 12 13 11 10 9 8 7 5 7 8 8 9 11 12 12 13 14 16 18 19 19 19 20 21 22 21 19 19 19 18 18 19 19 18 18 18 19 20 20 20 20
11 12 13 11 10 9 8 8 8 9 9 7 9 12 12 12 13 15 16 17 18 19 20 20 20 22 24 22 19 18 18 19 21 21 20 19 18 19 21 21 20 19
12 12 13 12 11 10 9 9 10 9 8 8 10 13 14 15 15 15 15 16 17 18 20 20 18 20 23 23 20 18 18 19 20 20 20 19 19 19 20 20 20 19
13 13 13 13 12 11 10 10 10 9 11 13 15 15 16 16 14 13 14 16 17 18 19 20 18 18 21 23 21 18 18 17 17 18 19 19 19 19 20 21 21 20
13 14 14 13 13 12 12 11 11 12 14 15 14 13 13 12 12 13 15 17 18 18 17 18 17 17 19 21 20 17 16 17 17 18 19 20 20 21 22 23 23 22
15 15 15 15 14 13 13 12 11 12 14 14 13 12 12 12 13 15 16 17 17 17 16 16 17 17 18 19 19 17 17 17 17 18 19 20 22 22 23 24 24 23
16 17 17 16 15 14 13 12 11 12 13 14 14 14 13 12 13 14 15 15 16 17 16 16 17 17 17 17 16 16 17 17 17 17 18 20 21 22 23 23 23 23
16 18 18 17 15 14 12 12 11 12 13 14 16 16 14 13 13 13 14 16 17 17 16 15 17 20 19 19 17 16 16 16 16 17 19 20 22 22 22 22 23 25
18 19 18 17 15 14 12 11 11 12 13 15 16 16 15 13 13 14 14 16 17 18 17 17 20 22 21 21 20 18 17 16 17 19 20 21 22 23 23 22 23 25
21 20 19 17 16 15 13 12 12 13 14 15 16 16 16 15 15 15 15 15 17 18 19 20 22 23 22 21 21 20 19 18 20 21 20 21 23 23 22 22 23 24
21 21 19 17 16 15 13 13 13 14 14 16 16 16 16 16 16 16 16 16 17 19 21 22 22 21 21 21 22 22 22 21 21 21 21 21 22 22 21 21 24 26
21 20 20 17 15 14 14 14 14 15 15 16 17 18 18 17 17 17 17 17 18 20 22 23 21 19 19 21 23 23 22 21 21 22 22 21 21 21 21 21 24 27
21 20 19 17 15 15 15 14 14 15 16 17 19 20 20 18 17 18 18 18 19 20 21 22 22 20 20 22 22 22 21 21 22 23 23 22 21 21 20 22 24 24
20 18 17 17 16 16 15 14 14 16 17 18 19 19 19 19 18 18 19 20 22 21 20 22 22 20 19 21 21 21 21 21 21 20 20 20 21 21 20 22 23 22
18 17 16 16 16 16 15 14 14 15 16 17 17 17 18 19 19 19 20 22 24 22 20 21 21 20 19 19 20 20 21 20 19 19 20 21 21 21 20 21 22 22
18 16 16 17 17 17 16 15 14 13 13 15 17 18 18 20 21 22 22 24 24 23 21 22 22 19 18 17 18 21 22 20 20 20 21 22 22 22 21 21 22 22
17 17 17 18 18 17 17 16 15 15 16 17 16 16 18 19 21 24 27 27 26 24 23 22 20 19 20 19 20 22 22 19 19 19 20 22 23 23 23 23 23 23
Wind_Direction
235 240 258 264 252 254 267 276 279 281 281 286 294 293 287 290 300 306 308 310 312 309 307 306 306 310 315 320 326 330 331 329 324 319 316 317 324 329 330 333 332 328
228 233 258 280 279 278 299 295 272 280 295 309 308 302 302 308 310 307 307 309 310 311 308 305 306 309 314 321 324 325 330 333 322 313 312 317 325 328 329 329 330 329
228 226 243 259 248 241 254 266 280 300 322 325 313 306 306 304 299 300 306 309 311 312 311 313 318 319 317 321 322 320 324 327 322 313 311 316 323 327 330 328 327 327
227 229 234 230 221 235 254 271 288 299 299 298 294 294 299 298 296 302 308 310 310 310 311 316 319 313 310 313 315 315 317 319 317 312 310 314 321 327 330 326 322 322
225 234 240 232 224 238 256 266 261 254 271 280 280 286 295 297 299 304 307 305 303 303 303 303 300 297 300 305 308 308 309 311 311 307 306 309 316 323 326 324 321 320
226 232 238 237 231 240 258 260 249 265 299 307 299 293 296 299 306 312 312 311 308 302 298 294 293 297 300 302 304 305 305 307 307 305 302 305 311 316 321 322 322 320
235 241 242 241 242 251 260 255 254 316 325 321 310 300 307 313 316 314 314 316 314 306 298 294 293 295 297 299 303 303 303 305 305 303 303 307 310 310 314 320 322 322
232 237 240 240 241 243 251 263 294 319 309 301 295 294 302 306 306 306 309 313 314 310 305 302 300 298 295 295 298 298 299 302 302 299 302 307 307 304 308 316 321 322
223 226 230 234 236 236 244 252 275 298 291 279 277 279 283 292 302 306 306 310 313 314 313 311 308 306 301 296 293 291 294 299 298 296 299 303 303 300 303 310 317 320
222 224 225 228 234 240 247 248 265 292 284 266 271 281 286 294 302 301 302 307 308 308 309 308 305 305 305 302 296 291 292 296 298 298 299 301 300 298 301 306 312 315
223 225 225 227 232 235 240 246 255 267 272 281 288 287 285 284 286 290 297 301 300 298 300 301 300 300 302 305 304 297 293 295 298 297 296 298 299 298 300 303 306 308
221 223 224 229 235 236 237 242 253 265 273 279 274 270 273 276 283 292 297 299 299 298 299 298 298 298 297 300 303 300 297 298 299 299 298 299 299 296 298 300 299 300
221 225 228 229 233 237 241 243 250 258 260 261 264 268 275 282 291 296 295 294 292 290 291 293 298 299 295 296 301 302 299 299 302 304 303 301 298 295 295 297 295 294
221 227 232 233 234 235 240 246 250 254 262 272 280 284 288 291 294 291 288 289 291 294 297 301 305 303 296 297 304 304 298 297 300 303 303 303 300 296 294 295 294 293
219 222 228 231 235 238 245 255 261 262 271 283 290 294 299 295 287 286 290 296 301 305 304 302 301 297 292 294 301 303 300 299 302 307 309 307 303 299 298 296 293 290
221 219 223 226 231 239 246 256 263 262 267 274 281 290 297 293 290 295 297 296 297 299 299 298 295 291 290 291 293 297 300 302 307 313 317 315 311 306 300 296 293 289
224 220 224 229 234 242 251 261 265 262 265 270 275 284 293 295 298 298 292 289 293 297 299 297 292 293 295 293 290 290 293 297 304 309 315 319 319 313 304 296 292 291
222 221 225 230 237 245 257 268 270 267 269 272 275 281 286 287 288 286 286 290 292 294 296 294 292 296 297 293 290 288 285 288 294 299 306 314 318 318 312 302 293 292
218 218 221 228 236 246 257 264 267 268 269 271 274 278 280 281 282 282 284 287 289 292 297 296 295 297 298 295 293 289 286 286 289 292 298 306 313 315 315 311 303 300
217 216 220 229 236 245 255 259 264 269 270 272 274 275 277 279 280 280 283 287 290 292 294 294 297 300 300 299 296 293 291 289 288 288 291 299 309 313 316 317 312 307
215 215 221 231 235 242 253 258 263 269 271 273 274 272 274 276 275 277 282 284 286 290 291 293 297 299 296 297 297 295 291 286 284 284 286 293 305 313 319 321 314 308
213 215 224 233 235 241 250 256 262 266 269 272 271 268 271 276 274 275 279 279 281 288 288 287 291 293 294 300 302 299 294 289 286 285 285 290 300 308 318 322 318 315
213 218 227 234 239 246 251 254 257 261 268 274 272 267 270 275 274 275 278 276 280 288 286 281 284 287 292 299 301 300 300 296 291 289 287 288 294 303 312 317 317 321
218 224 227 231 241 247 248 252 257 263 269 272 274 274 273 273 273 276 277 276 282 291 289 279 280 285 292 298 298 299 303 300 291 288 286 287 292 301 309 315 318 325
221 229 230 231 239 243 246 253 260 265 264 266 276 280 274 272 275 277 277 277 283 290 287 280 279 284 288 288 287 295 304 303 292 285 283 287 293 299 306 313 318 322
225 232 235 234 238 244 249 250 248 249 252 260 274 276 270 273 278 278 280 282 282 284 284 280 276 276 280 280 284 296 305 304 296 290 288 291 293 295 302 310 312 315